Location: Kaltenbach
(49.2000°N, 7.7500°E)
Time: 08:47:41
(UTC+00:00)

Cosmos 2221 - Pass Details

Date: 24 January 2020
Orbit: 593 x 615 km, 82.5° (Epoch: 27 February)

Event Time Altitude Azimuth Distance (km) Brightness Sun altitude
Rises 17:19:03 0° 3° (N) 2,848 5.8 -11.0°
Reaches altitude 10° 17:21:55 10° 23° (NNE) 1,942 4.7 -11.4°
Maximum altitude 17:24:49 18° 66° (ENE) 1,507 3.9 -11.9°
Enters shadow 17:25:07 17° 71° (ENE) 1,512 3.9 -11.9°
